Find Starlink 4453

NORAD ID: 53497 Int'l Des: 2022-099 Owner: SPXS Country: US Constellation: starlink operational
LEOCIRCULARRETROGRADESSO

Live Position

Loading 3D Globe...

About Starlink 4453

Description loading...

Upcoming Passes

Passes for default location (London). Set your location on the main map for personalized predictions.

Altitude History

Loading altitude history...

Two-Line Element Set

1 53497U 22099AJ 26107.29147185 .00000343 00000-0 27953-4 0 9993
2 53497 97.6032 228.1120 0001111 87.7478 272.3876 15.05650653201787
Epoch: Apr 17, 2026 • Age: 9 hours

Current Status

Altitude 578.6 km
Velocity 7.57 km/s
Sub-Earth Point -82.22°S, 143.72°W
Launch Date Aug 12, 2022
Age 3.6 years
Type internet

Technical Details

Classification Payload
Mass 300.00 kg
Dry Mass 275.00 kg
Total Mass 300.00 kg
Length 0.20 m
Diameter 2.80 m
Span 9.00 m
Shape Box + pan
Manufacturer SPXS
Bus Type Starlink
Phase Status In Orbit
Owner/State SPXS/US

Most Searched